METEOR 2-5 DEB, 39603

Orbit data source: Space-Track

METEOR 2-5 DEB, 39603 is space debris in LEO originally from a launch on Wed, 31 Oct 1979 UTC launched from the Plesetsk Missile And Space Complex (PKMTR). Debris objects in space refer to the collection of defunct objects orbiting the Earth. Examples of debris include non-operational satellites, rocket bodies, and fragments generated from explosions, collisions, or faulty payload assembly.

Loading next visibility...
Identifier
39603, 1979-095CE
Orbit
LEO
Country
Flag of CISCIS
Related business
Manufacturer
Unknown
Mission
Spacecraft
Bus & Motor
Unknown
Mass
Unknown
Launch date (UTC)
1979-10-31 (47 years ago)
Launch vehicle
Unknown
Launch site
Plesetsk Missile And Space Complex (PKMTR)
Object type
Payload
Rocket body
Debris
Shape & HBR
Unknown shape, 0.1 m
Radar Cross Section
Small (<0.1 m²)

Expand to show TLE details & history
Last TLE update: 3 days ago

TLE from 3 days ago
0 METEOR 2-5 DEB
1 39603U 79095CE  26170.30728691  .00003367  00000-0  11969-2 0  9990
2 39603  81.2030 160.8799 0015538  69.5198 290.7652 14.34138719643776
Epoch: 2026-06-19T07:22Z
TLE epoch observation values (Epoch: 2026-06-19T07:22:29.589Z)
Latitude
-0.00002°
Longitude
142.71847°
Altitude
776.933 km
Speed
7.468 km/s
True Right ascension
10h 43m 31s
True Declination
0° 00' 00"
Sunlit
Object was in daylight at epoch
Visualization orbit readout
Latitude
Unknown
Longitude
Unknown
Altitude
Unknown
Speed
Unknown
Apparent Right ascension
Unknown
Apparent Declination
Unknown
Sunlit
N/A
Visualization observer readout
Local Sidereal Time
01:06:57
Azimuth
Unknown
Elevation
Unknown
Doppler factor
Unknown
Orbital elements
Apogee altitude
786.189 km
Perigee altitude
763.959 km
Semi-major axis
7,153.211 km
Eccentricity
0.00155
Inclination
81.203°
RAAN
160.8799°
Arg. of periapsis
69.5198°
True anomaly
290.5986°
Mean anomaly
290.7652°
Eccentric anomaly
290.68191°
Mean motion
3.5875 °/min
Orbital period
100.35 mins
BSTAR
0.0011969
Loading maneuver chart data...
Computing Atmospheric mass density...

Documentation

Showing up to 5 results
|